Location: Petruro
(41.0333°N, 14.7833°E)
Time: 00:27:55
(UTC+00:00)

X-37B - Visible Passes

Search period start: 24 October 2021 00:00
Search period end: 03 November 2021 00:00
Orbit: 342 x 346 km, 45.0° (Epoch: 22 October)

Date Brightness Start Highest point End Pass type
(mag) Time Alt. Az. Time Alt. Az. Time Alt. Az.
24 Oct 1.0 17:48:06 10° WNW 17:50:32 56° W 17:50:32 56° W visible
25 Oct 0.6 16:35:46 10° WNW 16:38:37 56° NNE 16:41:29 10° E visible
25 Oct 3.0 18:11:39 10° W 18:13:00 20° WSW 18:13:00 20° WSW visible
26 Oct 0.6 16:59:05 10° WNW 17:01:57 66° SSW 17:04:10 15° SE visible
27 Oct 2.4 17:22:40 10° W 17:25:07 25° SSW 17:26:56 14° SSE visible
29 Oct 2.8 16:33:42 10° W 16:36:04 23° SW 16:38:25 10° SSE visible
